GW1943 Weather Reports


time (UTC)temp
F
wind
direction
speed
knots
gust
knots
rain 1hr
in
rain 24hr
in
rain mn
in
humidity
%
barometer
mb
20260505153055 56 217 0.9 1.7 0.00 0.00 0.00 88 1017.2
20260505152551 56 217 0.0 1.7 0.00 0.00 0.00 87 1016.9
20260505152047 56 216 0.0 0.0 0.00 0.00 0.00 88 1016.9
20260505151542 55 216 0.9 1.7 0.00 0.00 0.00 87 1017.0
20260505151040 55 218 0.9 1.7 0.00 0.00 0.00 88 1017.0
20260505150536 55 211 0.0 4.3 0.00 0.00 0.00 87 1017.0
20260505140501 55 211 0.9 0.9 0.00 0.00 0.00 88 1016.4
20260505124915 55 214 0.0 1.7 0.00 0.00 0.00 88 1015.7
20260505124412 55 218 0.0 1.7 0.00 0.00 0.00 88 1015.7
20260505123908 55 213 0.0 0.9 0.00 0.00 0.00 88 1015.4
20260505123404 55 212 2.6 6.1 0.00 0.00 0.00 88 1015.6
20260505122900 55 227 0.9 2.6 0.00 0.00 0.00 88 1015.7
20260505122358 55 211 0.9 1.7 0.00 0.00 0.00 88 1015.5
20260505121854 55 213 0.9 5.2 0.00 0.00 0.00 89 1015.4
20260505121351 55 208 0.0 1.7 0.00 0.00 0.00 89 1015.6
20260505120847 55 211 0.0 2.6 0.00 0.00 0.00 89 1015.6
20260505120343 55 204 2.6 2.6 0.00 0.00 0.00 89 1015.6
20260505115842 55 213 0.0 2.6 0.00 0.00 0.00 89 1015.2
20260505115340 55 216 0.0 0.0 0.00 0.00 0.00 89 1015.4
20260505114838 55 215 0.0 0.9 0.00 0.00 0.00 89 1015.4
20260505114334 55 215 0.0 0.9 0.00 0.00 0.00 89 1015.4
20260505113830 55 214 0.9 1.7 0.00 0.00 0.00 89 1015.5
20260505113327 55 214 0.0 0.0 0.00 0.00 0.00 89 1015.4
20260505112823 55 225 0.0 1.7 0.00 0.00 0.00 89 1015.1
20260505112320 55 213 0.9 2.6 0.00 0.00 0.00 89 1015.4
20260505111816 55 212 0.0 2.6 0.00 0.00 0.00 89 1015.0
20260505111311 55 215 1.7 2.6 0.00 0.00 0.00 89 1015.2
20260505110807 55 213 0.0 2.6 0.00 0.00 0.00 89 1015.3
20260505110305 55 214 0.0 1.7 0.00 0.00 0.00 89 1015.1
20260505101739 55 206 2.6 4.3 0.00 0.00 0.00 89 1014.9
20260505101235 55 210 0.0 1.7 0.00 0.00 0.00 90 1015.1
20260505100732 55 237 0.9 1.7 0.00 0.00 0.00 90 1014.8
20260505100229 55 212 1.7 4.3 0.00 0.00 0.00 90 1014.8
20260505095724 55 214 0.0 2.6 0.00 0.00 0.00 90 1014.8
20260505095222 55 205 0.9 1.7 0.00 0.00 0.00 90 1014.9
20260505094718 55 215 0.9 2.6 0.00 0.00 0.00 90 1014.7
20260505094214 55 212 0.0 2.6 0.00 0.00 0.00 90 1014.9
20260505093711 54 227 0.0 1.7 0.00 0.00 0.00 91 1014.8
20260505093208 54 209 1.7 4.3 0.00 0.00 0.00 91 1014.6
20260505092705 54 206 1.7 2.6 0.00 0.00 0.00 92 1014.7
20260505092204 54 211 0.0 0.9 0.00 0.00 0.00 91 1014.4
20260505091700 54 195 0.0 1.7 0.00 0.00 0.00 91 1014.7
20260505091158 54 212 0.0 2.6 0.00 0.00 0.00 91 1014.6
20260505090656 54 215 0.9 2.6 0.00 0.00 0.00 91 1014.6
20260505090154 54 209 0.9 4.3 0.00 0.00 0.00 91 1014.5
20260505085651 54 209 1.7 2.6 0.00 0.00 0.00 91 1014.6
20260505085149 54 200 0.9 1.7 0.00 0.00 0.00 91 1014.5
20260505084646 54 209 0.0 0.9 0.00 0.00 0.00 91 1014.5
20260505084145 54 213 0.0 0.0 0.00 0.00 0.00 90 1014.3
20260505083642 55 211 0.0 4.3 0.00 0.00 0.00 90 1014.3
20260505083138 55 211 1.7 2.6 0.00 0.00 0.00 90 1014.3
20260505082634 55 205 0.0 1.7 0.00 0.00 0.00 90 1014.5
20260505082131 55 218 0.9 2.6 0.00 0.00 0.00 90 1014.5
20260505081627 55 211 0.0 0.0 0.00 0.00 0.00 90 1014.6
20260505081125 55 215 0.0 4.3 0.00 0.00 0.00 89 1014.5
20260505080621 55 216 0.9 0.9 0.00 0.00 0.00 89 1014.4
20260505080117 55 212 0.0 1.7 0.00 0.00 0.00 90 1014.2
20260505075614 55 211 0.0 1.7 0.00 0.00 0.00 90 1014.2
20260505075111 55 212 0.0 0.9 0.00 0.00 0.00 89 1014.1
20260505074607 55 211 0.0 1.7 0.00 0.00 0.00 89 1014.0
20260505074105 55 211 0.9 0.9 0.00 0.00 0.00 89 1014.1
20260505073602 55 213 0.0 0.9 0.00 0.00 0.00 89 1014.2
20260505073101 55 217 0.9 0.9 0.00 0.00 0.00 89 1014.1
20260505072556 55 213 0.0 1.7 0.00 0.00 0.00 88 1014.0
20260505072053 55 214 0.9 0.9 0.00 0.00 0.00 88 1013.9
20260505071548 55 211 0.0 1.7 0.00 0.00 0.00 88 1013.9
20260505071046 55 212 0.9 1.7 0.00 0.00 0.00 88 1014.0
20260505070543 56 211 0.9 1.7 0.00 0.00 0.00 88 1013.7
20260505070039 56 215 0.9 0.9 0.00 0.00 0.00 87 1013.9
20260505065535 56 209 0.0 4.3 0.00 0.00 0.00 87 1013.8
20260505065032 56 216 0.0 4.3 0.00 0.00 0.00 87 1013.9
20260505064529 56 210 1.7 5.2 0.00 0.00 0.00 87 1013.9
20260505064027 56 222 0.9 6.1 0.00 0.00 0.00 87 1013.8
20260505063524 56 220 0.9 5.2 0.00 0.00 0.00 86 1013.8
20260505063020 57 204 0.0 1.7 0.00 0.00 0.00 86 1013.6
20260505062517 57 216 2.6 4.3 0.00 0.00 0.00 86 1013.5
20260505062014 57 213 0.9 5.2 0.00 0.00 0.00 85 1013.6
20260505061512 57 207 0.9 1.7 0.00 0.00 0.00 85 1013.2
20260505061009 57 215 0.9 2.6 0.00 0.00 0.00 85 1013.2
20260505060507 57 211 0.0 5.2 0.00 0.00 0.00 84 1013.2
20260505060003 58 213 0.0 2.6 0.00 0.00 0.00 84 1013.2
20260505055458 58 210 0.0 0.9 0.00 0.00 0.00 83 1013.4
20260505054955 58 201 0.9 2.6 0.00 0.00 0.00 83 1013.1
20260505054453 58 212 0.0 6.1 0.00 0.00 0.00 83 1013.2
20260505053950 59 213 0.0 0.9 0.00 0.00 0.00 82 1013.3
20260505053447 59 210 0.9 2.6 0.00 0.00 0.00 82 1012.9
20260505052944 59 217 0.9 2.6 0.00 0.00 0.00 81 1013.1
20260505052441 60 210 1.7 5.2 0.00 0.00 0.00 80 1013.2
20260505051938 60 213 0.9 4.3 0.00 0.00 0.00 79 1013.0
20260505051435 60 216 0.9 2.6 0.00 0.00 0.00 78 1013.0
20260505050933 61 213 0.0 1.7 0.00 0.00 0.00 78 1012.8
20260505050432 61 219 2.6 4.3 0.00 0.00 0.00 77 1012.7
20260505041359 65 218 0.9 1.7 0.00 0.00 0.00 73 1012.1
20260505040856 65 212 1.7 2.6 0.00 0.00 0.00 71 1011.7
20260505040354 65 219 0.9 2.6 0.00 0.00 0.00 72 1011.9
20260505035850 66 218 0.0 0.9 0.00 0.00 0.00 72 1011.9
20260505035346 66 231 0.9 1.7 0.00 0.00 0.00 70 1011.9
20260505034844 66 217 0.9 1.7 0.00 0.00 0.00 71 1011.5
20260505034340 67 216 2.6 2.6 0.00 0.00 0.00 68 1011.5
20260505033837 67 219 0.9 4.3 0.00 0.00 0.00 67 1011.4
20260505033334 68 225 1.7 2.6 0.00 0.00 0.00 67 1011.4
20260505032832 68 223 0.9 1.7 0.00 0.00 0.00 67 1011.4
20260505032328 68 245 1.7 2.6 0.00 0.00 0.00 65 1011.2
20260505031826 69 218 0.9 0.9 0.00 0.00 0.00 65 1011.3
20260505031322 70 221 0.9 2.6 0.00 0.00 0.00 63 1011.2
20260505030819 71 220 0.0 2.6 0.00 0.00 0.00 62 1011.0
20260505030315 71 226 1.7 2.6 0.00 0.00 0.00 60 1010.9
20260505025810 72 221 1.7 2.6 0.00 0.00 0.00 59 1010.8
20260505025309 73 221 0.9 4.3 0.00 0.00 0.00 57 1010.8
20260505024807 73 221 0.9 2.6 0.00 0.00 0.00 57 1011.0
20260505024304 73 220 0.0 2.6 0.00 0.00 0.00 58 1010.9
20260505023801 74 225 1.7 1.7 0.00 0.00 0.00 58 1010.9
20260505023258 74 221 1.7 2.6 0.00 0.00 0.00 59 1010.6
20260505022755 75 290 0.9 2.6 0.00 0.00 0.00 57 1010.6
20260505022252 76 213 0.9 2.6 0.00 0.00 0.00 57 1010.9
20260505021749 76 208 0.9 1.7 0.00 0.00 0.00 54 1011.0
20260505021246 77 216 0.9 1.7 0.00 0.00 0.00 54 1010.7
20260505020742 77 236 1.7 2.6 0.00 0.00 0.00 51 1010.8
20260505020237 78 225 0.9 1.7 0.00 0.00 0.00 49 1010.8
20260505015735 78 232 0.0 2.6 0.00 0.00 0.00 49 1010.8
20260505015231 78 231 0.9 4.3 0.00 0.00 0.00 48 1010.7
20260505014729 78 226 0.9 2.6 0.00 0.00 0.00 47 1010.8
20260505014226 79 235 1.7 2.6 0.00 0.00 0.00 46 1010.8
20260505013722 79 225 1.7 2.6 0.00 0.00 0.00 45 1010.9
20260505013220 79 255 0.9 2.6 0.00 0.00 0.00 45 1011.0
20260505012718 79 235 0.9 2.6 0.00 0.00 0.00 44 1010.7
20260505012215 79 242 0.9 2.6 0.00 0.00 0.00 45 1010.7
20260505011710 79 225 1.7 2.6 0.00 0.00 0.00 42 1010.9
20260505011208 79 239 0.9 4.3 0.00 0.00 0.00 45 1010.9
20260505010703 79 227 0.9 2.6 0.00 0.00 0.00 43 1010.9
20260505010200 80 244 1.7 2.6 0.00 0.00 0.00 42 1011.1
20260505005656 81 247 2.6 2.6 0.00 0.00 0.00 40 1011.0
20260505005153 81 229 1.7 4.3 0.00 0.00 0.00 40 1011.1
20260505004650 82 221 0.9 2.6 0.00 0.00 0.00 42 1010.8
20260505004147 82 220 1.7 2.6 0.00 0.00 0.00 41 1011.0
20260505003644 83 239 0.9 2.6 0.00 0.00 0.00 41 1010.9
20260505003142 84 236 0.0 0.0 0.00 0.00 0.00 37 1011.0
20260505002638 82 220 0.9 1.7 0.00 0.00 0.00 40 1011.1
20260505002136 83 244 2.6 4.3 0.00 0.00 0.00 38 1011.2
20260505001633 83 219 0.9 4.3 0.00 0.00 0.00 40 1011.1
20260505001130 84 226 1.7 2.6 0.00 0.00 0.00 36 1011.1
20260505000627 83 221 0.9 2.6 0.00 0.00 0.00 36 1011.1
20260505000125 84 219 0.9 2.6 0.00 0.00 0.00 36 1011.1
20260504235621 84 217 0.9 2.6 0.00 0.00 0.00 36 1011.0
20260504235118 84 281 1.7 2.6 0.00 0.00 0.00 33 1011.0
20260504234615 83 214 0.0 2.6 0.00 0.00 0.00 39 1011.4
20260504234112 84 207 2.6 2.6 0.00 0.00 0.00 31 1011.2
20260504233608 83 219 1.7 1.7 0.00 0.00 0.00 33 1011.1
20260504233104 83 201 0.9 2.6 0.00 0.00 0.00 34 1011.4
20260504232602 82 210 0.9 2.6 0.00 0.00 0.00 33 1011.2
20260504232059 83 227 0.9 1.7 0.00 0.00 0.00 33 1011.1
20260504231555 82 215 0.9 1.7 0.00 0.00 0.00 34 1011.2
20260504231051 82 210 0.0 4.3 0.00 0.00 0.00 35 1011.0
20260504230547 83 252 1.7 2.6 0.00 0.00 0.00 34 1011.0
20260504230047 83 218 0.9 1.7 0.00 0.00 0.00 35 1011.1
20260504225544 82 216 0.0 2.6 0.00 0.00 0.00 35 1011.2
20260504225041 83 222 1.7 2.6 0.00 0.00 0.00 32 1011.5
20260504224537 83 222 0.9 0.9 0.00 0.00 0.00 33 1011.6
20260504224035 83 237 0.9 2.6 0.00 0.00 0.00 33 1011.6
20260504223531 83 240 1.7 2.6 0.00 0.00 0.00 33 1011.6
20260504223027 82 217 0.0 4.3 0.00 0.00 0.00 35 1011.8
20260504222524 83 219 0.9 2.6 0.00 0.00 0.00 34 1011.6
20260504222021 82 224 1.7 2.6 0.00 0.00 0.00 35 1011.7
20260504221518 82 216 0.0 2.6 0.00 0.00 0.00 37 1011.8
20260504221015 82 212 2.6 4.3 0.00 0.00 0.00 35 1011.7
20260504220512 82 213 0.9 1.7 0.00 0.00 0.00 35 1011.8
20260504220009 82 222 0.0 4.3 0.00 0.00 0.00 37 1011.9
20260504215505 81 219 1.7 2.6 0.00 0.00 0.00 36 1011.9
20260504215003 81 238 3.5 4.3 0.00 0.00 0.00 35 1011.9
20260504214458 82 209 1.7 2.6 0.00 0.00 0.00 38 1011.8
20260504213955 82 215 0.9 2.6 0.00 0.00 0.00 39 1012.1
20260504213451 82 213 0.0 2.6 0.00 0.00 0.00 40 1012.1
20260504212949 81 254 0.9 1.7 0.00 0.00 0.00 41 1012.0
20260504212444 81 213 0.9 2.6 0.00 0.00 0.00 40 1012.1
20260504211942 81 217 0.9 2.6 0.00 0.00 0.00 37 1012.0
20260504211438 80 228 1.7 2.6 0.00 0.00 0.00 39 1012.1
20260504210936 79 219 0.9 4.3 0.00 0.00 0.00 41 1012.0
20260504210433 80 228 0.9 2.6 0.00 0.00 0.00 40 1012.0
20260504205930 79 224 0.9 1.7 0.00 0.00 0.00 40 1011.9
20260504205427 79 218 2.6 2.6 0.00 0.00 0.00 40 1012.1
20260504204926 79 225 1.7 2.6 0.00 0.00 0.00 40 1011.9
20260504204423 78 238 0.9 2.6 0.00 0.00 0.00 44 1012.2
20260504203923 78 276 1.7 4.3 0.00 0.00 0.00 42 1012.1
20260504203420 78 217 2.6 4.3 0.00 0.00 0.00 40 1012.2
20260504202915 78 241 0.9 4.3 0.00 0.00 0.00 42 1012.2
20260504202412 78 218 0.9 2.6 0.00 0.00 0.00 43 1012.3
20260504201909 77 213 1.7 4.3 0.00 0.00 0.00 46 1012.1
20260504201407 76 265 2.6 4.3 0.00 0.00 0.00 45 1012.1
20260504200904 76 274 2.6 4.3 0.00 0.00 0.00 43 1012.0
20260504200400 77 255 1.7 2.6 0.00 0.00 0.00 44 1011.9
20260504195857 77 219 0.9 1.7 0.00 0.00 0.00 45 1012.0
20260504195352 77 233 0.9 2.6 0.00 0.00 0.00 43 1012.0
20260504194849 75 221 0.9 2.6 0.00 0.00 0.00 43 1012.0
20260504194345 76 221 0.9 1.7 0.00 0.00 0.00 47 1012.3
20260504193841 75 272 1.7 2.6 0.00 0.00 0.00 45 1012.2
20260504193339 75 221 0.0 2.6 0.00 0.00 0.00 48 1012.1
20260504192838 75 215 2.6 2.6 0.00 0.00 0.00 46 1012.2
20260504192335 75 220 0.9 2.6 0.00 0.00 0.00 48 1012.3
20260504191833 74 231 1.7 2.6 0.00 0.00 0.00 50 1012.3
20260504191331 74 222 1.7 4.3 0.00 0.00 0.00 48 1012.5
20260504190826 73 246 1.7 2.6 0.00 0.00 0.00 49 1012.3
20260504190322 73 216 0.9 2.6 0.00 0.00 0.00 53 1012.1
20260504185819 73 223 0.9 2.6 0.00 0.00 0.00 53 1012.5
20260504185316 73 240 2.6 5.2 0.00 0.00 0.00 52 1012.6
20260504184812 73 236 1.7 2.6 0.00 0.00 0.00 52 1012.3
20260504184308 73 243 2.6 4.3 0.00 0.00 0.00 51 1012.3
20260504183804 73 228 0.9 4.3 0.00 0.00 0.00 53 1012.2
20260504183301 72 229 1.7 4.3 0.00 0.00 0.00 54 1012.3
20260504182759 72 221 0.9 1.7 0.00 0.00 0.00 54 1012.2
20260504182256 72 219 0.9 1.7 0.00 0.00 0.00 56 1012.8
20260504181753 71 230 0.9 2.6 0.00 0.00 0.00 56 1012.1
20260504181250 71 242 2.6 4.3 0.00 0.00 0.00 57 1012.7
20260504180750 71 224 0.9 2.6 0.00 0.00 0.00 57 1012.6
20260504180248 70 233 1.7 1.7 0.00 0.00 0.00 56 1012.6
20260504175745 70 220 0.9 2.6 0.00 0.00 0.00 59 1012.6
20260504175242 69 220 1.7 1.7 0.00 0.00 0.00 58 1012.7
20260504174740 69 230 1.7 2.6 0.00 0.00 0.00 58 1012.5
20260504174237 69 226 0.0 1.7 0.00 0.00 0.00 60 1012.6
20260504173733 69 223 0.0 1.7 0.00 0.00 0.00 62 1012.6
20260504173231 68 233 0.9 1.7 0.00 0.00 0.00 62 1012.6
20260504172727 68 234 0.9 1.7 0.00 0.00 0.00 63 1012.5
20260504172224 67 223 0.9 2.6 0.00 0.00 0.00 63 1012.2
20260504171720 67 226 0.9 1.7 0.00 0.00 0.00 63 1012.3
20260504171217 67 233 0.9 2.6 0.00 0.00 0.00 64 1012.6
20260504170714 66 233 1.7 1.7 0.00 0.00 0.00 63 1012.3
20260504170212 66 227 0.0 1.7 0.00 0.00 0.00 66 1012.3
20260504160130 62 224 0.9 1.7 0.00 0.00 0.00 73 1012.2